Ostrava, Czech Republic

8:40 AM CEST on May 24, 2018 (GMT +0200)
Mosnov

Weather History for LKMT - February, 2013

Change the Weather History Date:

Saturday, February 23, 2013

  Actual Average Record
Temperature  
Mean Temperature 29 °F -  
Max Temperature 32 °F 44 °F - ()
Min Temperature 26 °F 30 °F - ()
Degree Days  
Heating Degree Days 36    
Moisture  
Dew Point 28 °F    
Average Humidity 95    
Maximum Humidity 100    
Minimum Humidity 86    
Precipitation  
Precipitation 0.08 in 0.04 in - ()
Sea Level Pressure  
Sea Level Pressure 29.79 in    
Wind  
Wind Speed 7 mph ()    
Max Wind Speed 10 mph    
Max Gust Speed -    
Visibility 1.2 miles    
Events Snow    
T = Trace of Precipitation, MM = Missing Value Source: Averaged Metar Reports

Daily Weather History Graph

Daily Weather History Graph

Search for Another Location

Airport or City:

Astronomy

Feb. 23, 2013 Rise Set
Actual Time 6:42 AM CET 5:20 PM CET
Civil Twilight 6:09 AM CET 5:52 PM CET
Nautical Twilight 5:32 AM CET 6:30 PM CET
Astronomical Twilight 4:55 AM CET 7:07 PM CET
Moon 3:05 PM CET (2/23) 5:02 AM CET (2/23)
Length of Visible Light 11h 42m
Length of Day
10h 37m
Waxing Gibbous, 94% of the Moon is Illuminated
Feb 23
Waxing Gibbous
Feb 25
Full
Mar 4
Last Quarter
Mar 11
New
Mar 19
First Quarter

Hourly Weather History & Observations

Time (CET) Temp. Windchill Dew Point Humidity Pressure Visibility Wind Dir Wind Speed Gust Speed Precip Events Conditions
12:00 AM 26.6 °F 18.2 °F 24.8 °F 93% 29.83 in 2.5 mi NNE 8.1 mph - N/A Snow Light Snow
12:30 AM 26.6 °F 17.5 °F 24.8 °F 93% 29.83 in 2.5 mi NNE 9.2 mph - N/A Snow Light Snow
1:00 AM 27 °F - 24 °F 86% 29.89 in 2 mi North 8.9 mph - - Snow Light Snow
1:00 AM 26.6 °F 19.1 °F 24.8 °F 93% 29.83 in 2.5 mi North 6.9 mph - N/A Snow Light Snow
1:30 AM 26.6 °F 19.1 °F 24.8 °F 93% 29.83 in 2.5 mi North 6.9 mph - N/A Snow Light Snow
2:00 AM 26.6 °F 17.5 °F 24.8 °F 93% 29.83 in 2.5 mi North 9.2 mph - N/A Snow Light Snow
2:30 AM 26.6 °F 18.2 °F 24.8 °F 93% 29.83 in 2.5 mi North 8.1 mph - N/A Snow Light Snow
3:00 AM 26.6 °F 16.8 °F 24.8 °F 93% 29.80 in 2.5 mi NNE 10.4 mph - N/A Snow Light Snow
3:30 AM 26.6 °F 18.2 °F 24.8 °F 93% 29.80 in 2.5 mi NNE 8.1 mph - N/A Snow Light Snow
4:00 AM 26.6 °F 17.5 °F 24.8 °F 93% 29.80 in 2.5 mi NNE 9.2 mph - N/A   Overcast
4:30 AM 26.6 °F 16.8 °F 24.8 °F 93% 29.80 in 2.5 mi North 10.4 mph - N/A   Overcast
5:00 AM 26.6 °F 16.8 °F 24.8 °F 93% 29.80 in 2.5 mi NNE 10.4 mph - N/A   Overcast
5:30 AM 26.6 °F 18.2 °F 24.8 °F 93% 29.80 in 2.5 mi NNE 8.1 mph - N/A   Overcast
6:00 AM 26.6 °F 17.5 °F 24.8 °F 93% 29.80 in 2.5 mi NNE 9.2 mph - N/A Snow Light Snow
6:30 AM 26.6 °F 17.5 °F 26.6 °F 100% 29.80 in 2.5 mi NNE 9.2 mph - N/A Snow Light Snow
7:00 AM 27 °F - 26 °F 94% 29.86 in 1 mi NNE 8.9 mph - - Snow Light Snow
7:00 AM 26.6 °F 16.8 °F 26.6 °F 100% 29.80 in 1.1 mi NE 10.4 mph - N/A Snow Light Snow
7:30 AM 26.6 °F 17.5 °F 26.6 °F 100% 29.80 in 1.6 mi NNE 9.2 mph - N/A Snow Light Snow
7:47 AM 28.4 °F 20.4 °F 26.6 °F 93% 29.80 in 0.9 mi NNE 8.1 mph - N/A Snow Snow
8:00 AM 28.4 °F 19.7 °F 26.6 °F 93% 29.80 in 0.9 mi NNE 9.2 mph - N/A Snow Snow
8:04 AM 28.4 °F 19.1 °F 26.6 °F 93% 29.80 in 0.5 mi NNE 10.4 mph - N/A Snow Snow
8:21 AM 28.4 °F 19.7 °F 26.6 °F 93% 29.80 in 0.5 mi NE 9.2 mph - N/A Snow Snow
8:30 AM 28.4 °F 19.7 °F 26.6 °F 93% 29.80 in 0.4 mi NE 9.2 mph - N/A Snow Heavy Snow
8:52 AM 28.4 °F 19.7 °F 26.6 °F 93% 29.80 in 0.5 mi NE 9.2 mph - N/A Snow Snow
9:00 AM 28.4 °F 20.4 °F 26.6 °F 93% 29.80 in 0.5 mi NE 8.1 mph - N/A Snow Snow
9:30 AM 28.4 °F 19.7 °F 26.6 °F 93% 29.77 in 0.7 mi NE 9.2 mph - N/A Snow Snow
10:00 AM 28.4 °F 19.7 °F 26.6 °F 93% 29.77 in 0.6 mi NE 9.2 mph - N/A Snow Snow
10:30 AM 28.4 °F 19.7 °F 26.6 °F 93% 29.77 in 0.8 mi NE 9.2 mph - N/A Snow Light Snow
10:38 AM 28.4 °F 19.7 °F 26.6 °F 93% 29.77 in 0.7 mi NNE 9.2 mph - N/A Snow Snow
10:48 AM 28.4 °F 19.7 °F 26.6 °F 93% 29.77 in 0.8 mi NNE 9.2 mph - N/A Snow Snow
10:56 AM 28.4 °F 19.7 °F 26.6 °F 93% 29.77 in 0.7 mi NNE 9.2 mph - N/A Snow Snow
11:00 AM 28.4 °F 19.1 °F 26.6 °F 93% 29.77 in 0.7 mi NNE 10.4 mph - N/A Snow Snow
11:30 AM 28.4 °F 19.1 °F 28.4 °F 100% 29.77 in 0.9 mi NE 10.4 mph - N/A Snow Snow
11:33 AM 30.2 °F 21.9 °F 28.4 °F 93% 29.77 in 0.9 mi NE 9.2 mph - N/A Snow Snow
12:00 PM 30.2 °F 21.9 °F 28.4 °F 93% 29.74 in 0.9 mi NE 9.2 mph - N/A Snow Light Snow
12:30 PM 30.2 °F 21.9 °F 28.4 °F 93% 29.74 in 0.9 mi NE 9.2 mph - N/A Snow Light Snow
12:39 PM 30.2 °F 21.9 °F 28.4 °F 93% 29.74 in 0.7 mi NE 9.2 mph - N/A Snow Snow
12:41 PM 30.2 °F 21.9 °F 28.4 °F 93% 29.74 in 0.6 mi NE 9.2 mph - N/A Snow Snow
1:00 PM 31 °F - 29 °F 90% 29.80 in 1 mi NE 8.9 mph - - Snow Snow
1:00 PM 30.2 °F 21.9 °F 28.4 °F 93% 29.74 in 0.6 mi NE 9.2 mph - N/A Snow Snow
1:30 PM 30.2 °F 21.9 °F 30.2 °F 100% 29.74 in 0.5 mi NE 9.2 mph - N/A Snow Snow
2:00 PM 32.0 °F 24.8 °F 30.2 °F 93% 29.74 in 0.7 mi NE 8.1 mph - N/A Snow Light Snow
2:15 PM 32.0 °F 26.4 °F 30.2 °F 93% 29.74 in 0.9 mi NNE 5.8 mph - N/A Snow Light Snow
2:30 PM 32.0 °F 27.5 °F 30.2 °F 93% 29.74 in 0.9 mi NNE 4.6 mph - N/A Snow Light Snow
2:44 PM 32.0 °F 27.5 °F 30.2 °F 93% 29.74 in 0.9 mi NNE 4.6 mph - N/A Snow Light Snow
3:00 PM 32.0 °F 27.5 °F 30.2 °F 93% 29.74 in 0.9 mi NNE 4.6 mph - N/A Snow Light Snow
3:30 PM 32.0 °F 28.7 °F 30.2 °F 93% 29.77 in 0.9 mi NE 3.5 mph - N/A Snow Light Snow
4:00 PM 32.0 °F - 32.0 °F 100% 29.77 in 0.9 mi Variable 2.3 mph - N/A   Overcast
4:30 PM 32.0 °F - 32.0 °F 100% 29.77 in 0.7 mi North 1.2 mph - N/A   Overcast
5:00 PM 32.0 °F - 32.0 °F 100% 29.77 in 0.7 mi NE 1.2 mph - N/A   Overcast
5:30 PM 32.0 °F - 32.0 °F 100% 29.77 in 0.7 mi Calm Calm - N/A   Scattered Clouds
6:00 PM 32.0 °F - 30.2 °F 93% 29.77 in 0.8 mi SW 1.2 mph - N/A   Mostly Cloudy
6:30 PM 32.0 °F 28.7 °F 30.2 °F 93% 29.80 in 1.0 mi SW 3.5 mph - N/A   Overcast
7:00 PM 32 °F - 31 °F 95% 29.86 in 1 mi SW 4.5 mph - -   Mist
7:00 PM 32.0 °F 28.7 °F 32.0 °F 100% 29.80 in 0.9 mi SW 3.5 mph - N/A   Overcast
7:30 PM 32.0 °F - 32.0 °F 100% 29.80 in 0.9 mi Variable 2.3 mph - N/A   Overcast
8:00 PM 32.0 °F - 32.0 °F 100% 29.80 in 0.9 mi Calm Calm - N/A   Overcast
8:30 PM 32.0 °F 28.7 °F 32.0 °F 100% 29.83 in 0.9 mi SW 3.5 mph - N/A   Overcast
9:00 PM 32.0 °F - 32.0 °F 100% 29.83 in 0.9 mi SW 2.3 mph - N/A   Overcast
9:30 PM 32.0 °F - 32.0 °F 100% 29.83 in 0.9 mi Variable 2.3 mph - N/A   Overcast
10:00 PM 32.0 °F - 32.0 °F 100% 29.83 in 0.9 mi ENE 2.3 mph - N/A   Overcast
10:30 PM 32.0 °F - 32.0 °F 100% 29.83 in 0.9 mi ENE 1.2 mph - N/A   Overcast
11:00 PM 32.0 °F 28.7 °F 32.0 °F 100% 29.83 in 0.9 mi ENE 3.5 mph - N/A   Overcast
11:30 PM 32.0 °F - 32.0 °F 100% 29.86 in 0.9 mi NNE 2.3 mph - N/A   Overcast